ONEWEB-0352 (49216 NORAD) Tracking and Keplerian Element Data

This shows tracking and keplerian element data for the satellite.

Feedback or suggestion? Click here.




ElementValue
Catalog49216
NameONEWEB-0352
Epoch Orbit364
Epoch Day287.91667824
Epoch Year2021
RAAN317.5759
Inclination87.2128
Eccentricity0.0018242
Argument of Perigee184.4256
Mean Anonmoly75.1494
Mean Motion14.91145768
Decay Rate-0.01309986
L11 49216U 21083AG 21287.91667824 -.01309986 00000-0 -14303+0 0 9997
L22 49216 87.2128 317.5759 0018242 184.4256 75.1494 14.91145768 3645

Live tracking and technical data element details for ONEWEB-0352 (NORAD 49216). ONEWEB-0352 can be tracked NOW for your location showing map with azimuth and elevation plus other details from your city location.

Track the satellite on the map from your city or location and see movement details for azimuth, elevation, latitude, longitude, range, height, and movement on the map or in text.







IsCatalogInMostPopularTable: catalog: 49216, numindb: 7
Update: records affected: 1



GetName: 49216 ONEWEB-0352

Hit Count: updated at: Tue, 19 Oct 2021 09:35:06 GMT